This is the latest recevied weather packets stored in our database for station/object KC8JWT. If no packets are shown the sender has not sent any weather packets the latest 10 day(s).
| Time | Temp. | Humidity | Pressure | Rain* | Wind** | Luminosity | Snow |
|---|---|---|---|---|---|---|---|
| 1777980069 | 18.33° C | 72% | 1009.6 hPa | 0 mm | - | 55 W/m² | - |
| 1777979768 | 17.78° C | 72% | 1009.7 hPa | 0 mm | - | 48 W/m² | - |
| 1777979463 | 17.78° C | 73% | 1009.7 hPa | 0 mm | - | 36 W/m² | - |
| 1777979160 | 17.78° C | 73% | 1009.6 hPa | 0 mm | - | 34 W/m² | - |
| 1777978857 | 17.78° C | 73% | 1009.8 hPa | 0 mm | - | 25 W/m² | - |
| 1777978554 | 17.78° C | 73% | 1009.6 hPa | 0 mm | - | 16 W/m² | - |
| 1777978250 | 17.78° C | 73% | 1009.9 hPa | 0 mm | - | 10 W/m² | - |
| 1777977947 | 17.78° C | 74% | 1009.6 hPa | 0 mm | - | 10 W/m² | - |
| 1777977644 | 17.78° C | 73% | 1009.6 hPa | 0 mm | - | 8 W/m² | - |
| 1777977341 | 17.22° C | 74% | 1009.6 hPa | 0 mm | - | 3 W/m² | - |
| 1777977038 | 17.22° C | 76% | 1009.6 hPa | 0 mm | - | 2 W/m² | - |
| 1777976735 | 17.22° C | 77% | 1009.4 hPa | 0 mm | - | 2 W/m² | - |
| 1777976433 | 16.67° C | 77% | 1009.5 hPa | 0 mm | - | 0 W/m² | - |
| 1777976131 | 17.22° C | 78% | 1009.7 hPa | 0 mm | - | 0 W/m² | - |
| 1777975827 | 16.67° C | 78% | 1009.7 hPa | 0 mm | - | 0 W/m² | - |
| 1777975524 | 16.67° C | 79% | 1009.5 hPa | 0 mm | - | 0 W/m² | - |
| 1777975221 | 16.67° C | 79% | 1009.4 hPa | 0 mm | - | 0 W/m² | - |
| 1777974917 | 16.67° C | 80% | 1009.3 hPa | 0 mm | - | 0 W/m² | - |
| 1777974614 | 16.67° C | 80% | 1009.4 hPa | 0 mm | - | 0 W/m² | - |
| 1777974310 | 16.67° C | 81% | 1009.1 hPa | 0 mm | - | 0 W/m² | - |
| 1777974007 | 16.67° C | 81% | 1009.4 hPa | 0 mm | - | 0 W/m² | - |
| 1777973703 | 16.67° C | 81% | 1009.1 hPa | 0 mm | - | 0 W/m² | - |
| 1777973400 | 16.67° C | 81% | 1009.2 hPa | 0 mm | - | 0 W/m² | - |
| 1777973098 | 17.22° C | 80% | 1009.1 hPa | 1.27 mm | - | 0 W/m² | - |
| 1777972795 | 17.78° C | 79% | 1009.1 hPa | 1.27 mm | - | 0 W/m² | - |
* Rain latest hour (hover to see other rain measurements)
** Current wind speed in m/s (hover to see current wind gust speed)